Temp
17 15 14 13 13 12 11 10 10 9 9 8 7 8 8 8 8 8 9 8 7 7 6 6 6 6 7 7 8 9 10 11 12 14 16 17 18 17 16 16 15 16 17
17 15 15 13 12 11 10 9 9 9 8 7 7 7 7 7 7 7 6 6 5 4 3 4 4 4 4 4 5 6 8 10 11 13 14 14 17 18 18 16 16 16 16
18 16 15 13 12 11 10 9 8 8 7 6 6 5 5 6 5 4 4 3 2 2 2 2 2 2 3 3 4 4 5 7 9 12 13 14 15 16 20 17 16 16 16
17 16 15 13 12 10 9 9 8 8 7 6 5 4 4 4 3 2 1 1 0 0 1 1 1 0 1 1 2 4 4 5 6 7 12 13 14 14 14 19 17 16 16
17 16 14 13 12 10 9 8 8 8 6 5 4 3 3 2 1 1 0 -0 -1 -1 -0 -0 -1 -1 -0 0 1 2 3 4 4 6 8 8 12 14 14 14 16 17 18
16 15 13 12 12 10 9 8 8 7 5 4 4 3 2 1 0 -0 -1 -1 -1 -1 -1 -1 -1 -1 -1 -0 0 1 2 3 4 4 6 7 9 10 11 12 14 14 17
16 15 14 13 11 9 8 8 7 7 5 4 3 2 1 -0 -1 -2 -2 -2 -2 -2 -2 -2 -2 -2 -2 -1 -1 0 1 2 3 4 5 6 7 8 8 9 10 12 13
16 15 14 12 10 9 7 6 6 5 4 3 2 1 -0 -1 -2 -3 -3 -3 -3 -3 -3 -3 -3 -3 -2 -2 -1 -0 1 1 2 3 4 5 6 6 6 7 9 10 12
15 14 12 10 9 8 6 4 4 3 3 2 1 -0 -1 -2 -3 -3 -3 -4 -4 -4 -3 -4 -4 -3 -3 -3 -2 -1 -0 2 2 3 4 5 5 6 6 7 8 9 10
16 14 11 9 8 6 4 1 1 1 1 1 -0 -2 -3 -4 -4 -4 -4 -4 -4 -4 -4 -4 -4 -4 -4 -3 -3 -2 -2 -1 -0 0 2 2 3 5 5 6 8 9 10
14 11 9 7 5 2 1 -1 -1 -1 -1 -1 -2 -3 -4 -4 -4 -4 -4 -4 -4 -4 -4 -5 -5 -4 -4 -4 -4 -3 -4 -3 -3 -2 -2 -2 0 1 3 4 6 8 9
13 6 -0 1 -0 -2 -2 -2 -2 -3 -3 -3 -4 -4 -4 -5 -4 -4 -4 -4 -4 -4 -5 -5 -5 -5 -5 -4 -4 -4 -4 -4 -4 -3 -4 -3 -3 -2 -1 1 3 4 7
12 6 2 -1 -2 -1 -2 -3 -4 -4 -4 -5 -5 -5 -5 -5 -5 -5 -4 -5 -5 -5 -5 -5 -5 -6 -6 -5 -5 -5 -5 -5 -5 -5 -4 -4 -4 -4 -3 -3 -1 1 4
11 8 5 3 0 -1 -3 -3 -4 -5 -5 -5 -5 -6 -5 -5 -5 -5 -5 -5 -6 -6 -6 -6 -6 -5 -6 -6 -6 -7 -7 -6 -6 -6 -6 -4 -4 -4 -4 -4 -3 -2 -1
11 9 7 5 3 1 -1 -3 -4 -5 -5 -5 -6 -6 -6 -6 -5 -5 -5 -5 -6 -7 -7 -7 -7 -7 -6 -6 -7 -8 -8 -8 -8 -7 -7 -6 -4 -5 -5 -5 -5 -4 -3
11 9 8 6 4 3 2 0 -2 -4 -4 -6 -6 -6 -6 -6 -6 -5 -5 -6 -7 -7 -8 -8 -8 -7 -6 -5 -6 -8 -9 -9 -9 -9 -9 -8 -7 -5 -5 -5 -5 -5 -5
11 9 7 6 5 4 2 1 -2 -3 -4 -5 -6 -6 -6 -6 -6 -6 -6 -6 -7 -7 -8 -8 -9 -8 -7 -6 -6 -7 -9 -9 -9 -10 -10 -9 -8 -7 -6 -6 -6 -6 -6
10 9 7 6 4 3 3 1 -0 -2 -2 -3 -5 -6 -6 -6 -6 -6 -5 -6 -6 -7 -8 -8 -9 -9 -8 -7 -6 -7 -8 -9 -10 -9 -10 -9 -9 -8 -8 -7 -7 -7 -6
8 7 6 5 4 4 2 2 1 -0 -1 -2 -3 -4 -5 -6 -6 -6 -5 -5 -5 -6 -7 -7 -8 -9 -9 -8 -8 -7 -8 -8 -9 -10 -9 -9 -9 -8 -8 -8 -8 -8 -7
6 5 5 4 3 2 1 1 -0 -2 -3 -3 -4 -4 -4 -5 -5 -5 -5 -5 -5 -5 -6 -7 -7 -8 -9 -8 -8 -9 -9 -9 -9 -9 -9 -8 -9 -9 -9 -9 -9 -9 -8
1 2 2 -1 -1 -1 -2 -3 -4 -6 -6 -5 -5 -5 -5 -5 -5 -5 -4 -4 -4 -4 -5 -5 -6 -7 -8 -8 -8 -8 -9 -9 -9 -9 -9 -8 -8 -9 -9 -9 -9 -9 -9
-1 -1 -3 -3 -3 -3 -4 -6 -6 -7 -7 -7 -7 -6 -6 -5 -5 -5 -5 -4 -4 -4 -4 -5 -6 -8 -8 -8 -8 -8 -9 -8 -9 -9 -8 -8 -8 -9 -9 -10 -10 -10 -10
-2 -3 -4 -5 -5 -5 -5 -6 -7 -7 -7 -7 -7 -6 -6 -5 -5 -5 -5 -5 -4 -5 -5 -5 -6 -8 -9 -10 -10 -9 -9 -9 -8 -8 -8 -8 -8 -9 -9 -9 -10 -11 -10
-1 -3 -5 -5 -6 -6 -6 -6 -7 -7 -7 -7 -7 -6 -6 -6 -6 -6 -7 -7 -7 -6 -7 -7 -8 -9 -10 -11 -11 -10 -10 -9 -8 -8 -8 -8 -8 -9 -9 -9 -10 -11 -11
-0 -2 -3 -4 -5 -5 -6 -6 -7 -7 -7 -6 -6 -6 -6 -6 -7 -8 -8 -9 -9 -9 -9 -9 -10 -11 -11 -11 -10 -10 -10 -9 -8 -8 -9 -9 -9 -9 -9 -10 -10 -11 -11
1 -0 -1 -2 -3 -4 -5 -6 -7 -6 -6 -5 -5 -5 -5 -6 -7 -8 -9 -9 -10 -10 -10 -11 -11 -11 -11 -11 -11 -10 -9 -9 -9 -9 -10 -10 -10 -10 -10 -11 -11 -11 -12
Height
812 818 821 822 822 822 822 821 820 818 816 814 812 810 808 805 803 802 800 796 793 791 787 785 782 780 777 774 770 766 762 758 758 756 753 751 749 747 744 743 741 738 738
809 815 818 820 822 823 824 823 822 820 818 817 816 814 811 808 805 802 798 796 792 789 786 784 781 778 775 772 769 765 761 757 756 753 751 745 741 736 736 735 734 734 735
802 812 817 821 823 824 825 824 822 821 820 819 816 814 812 808 805 802 800 796 792 789 787 784 781 777 774 771 768 765 762 757 752 750 749 741 736 732 728 726 727 728 730
802 809 814 818 821 824 824 824 823 822 821 820 817 816 813 810 808 805 801 796 793 789 786 782 779 775 772 768 765 763 759 757 751 748 743 741 739 736 731 722 723 725 726
800 806 813 817 820 823 824 825 824 822 822 820 818 816 814 812 808 805 801 797 793 789 784 781 777 773 769 765 761 758 756 754 751 748 745 739 734 732 731 728 720 721 722
801 806 811 816 818 821 824 824 823 822 821 820 819 817 815 812 809 806 802 798 792 788 783 779 775 770 765 760 756 753 750 748 747 745 744 741 739 737 734 726 722 721 717
796 802 808 812 817 821 824 824 823 822 821 821 819 817 815 814 811 808 803 798 793 787 782 777 772 766 762 756 752 748 745 743 741 740 739 737 737 737 736 734 729 724 719
794 800 806 813 818 822 824 824 824 823 822 821 820 817 816 815 812 809 804 799 794 789 783 777 770 764 759 753 747 742 739 737 735 735 735 734 734 735 735 735 734 726 722
792 799 807 815 819 822 825 825 825 824 823 822 820 818 818 815 813 809 805 801 796 791 784 778 771 765 759 752 746 740 734 728 728 730 730 730 731 731 731 731 733 731 725
785 796 805 814 819 823 824 825 825 825 824 822 821 820 818 816 813 810 807 802 797 792 786 780 773 766 760 753 747 741 734 727 726 727 725 725 725 726 726 725 724 724 721
781 794 804 812 819 823 825 825 825 825 824 823 823 820 819 817 814 811 808 804 799 794 789 783 777 770 763 757 751 746 741 735 732 730 729 727 725 724 721 719 717 717 714
781 796 807 813 819 822 823 824 825 824 824 824 823 821 820 818 816 813 811 807 802 797 792 787 781 774 768 762 756 752 748 743 739 738 734 732 728 723 720 718 716 714 712
782 796 808 813 818 821 822 824 823 824 824 824 823 822 821 820 817 815 813 809 805 800 797 792 786 780 774 768 763 759 755 751 748 745 742 739 732 727 723 720 717 715 713
780 791 802 809 816 820 822 823 822 824 824 824 824 823 822 821 819 817 815 812 809 804 801 796 792 787 781 776 771 766 762 759 756 752 748 744 740 735 729 724 721 719 716
778 787 796 804 812 817 820 822 823 823 823 823 824 824 823 823 821 820 818 816 812 808 805 801 797 792 788 784 780 776 771 767 762 759 754 752 749 745 740 734 730 726 724
775 785 793 801 808 812 817 819 822 822 823 824 824 825 824 825 822 822 822 819 816 813 808 805 801 796 793 792 788 784 780 775 771 768 764 759 755 752 749 744 741 738 735
772 782 791 799 804 809 814 818 820 822 822 824 825 826 826 825 824 824 824 822 820 817 814 811 808 803 799 796 794 791 787 783 780 777 773 768 764 760 758 756 752 748 747
771 781 790 797 803 808 812 815 818 820 822 824 826 827 827 826 826 826 825 825 823 820 818 816 813 810 806 802 799 796 793 790 787 785 782 778 774 770 765 763 759 756 754
772 781 789 796 802 806 810 813 816 819 821 824 826 827 828 828 828 827 826 826 825 823 821 819 817 814 811 808 803 800 797 795 793 791 789 785 782 779 774 768 767 765 764
775 782 789 796 801 805 808 811 815 818 821 824 826 827 828 829 829 828 827 827 826 825 824 823 821 819 817 814 810 805 803 801 799 797 795 792 789 786 781 776 775 772 772
780 785 790 795 801 804 807 812 816 819 822 824 826 827 828 828 829 829 829 828 828 827 826 826 825 823 822 819 816 811 808 806 804 802 800 799 797 793 789 786 783 782 780
784 787 792 797 802 805 808 813 816 819 822 825 826 827 828 829 829 830 830 829 829 828 828 828 827 826 825 822 820 817 813 811 809 806 805 804 802 799 795 792 791 789 786
785 789 793 798 802 805 809 811 814 819 822 825 827 828 829 829 830 831 830 830 830 829 829 829 829 829 828 826 824 822 818 815 813 812 810 808 806 804 801 799 795 791 789
784 789 793 797 800 804 808 810 812 817 821 825 826 828 829 830 831 832 831 831 831 831 830 831 831 831 830 828 826 824 821 818 816 815 813 811 809 806 806 803 800 798 796
781 787 791 795 799 803 806 809 812 816 820 824 826 827 828 829 831 833 834 834 835 834 832 833 833 833 831 830 829 826 824 821 819 817 816 814 812 810 809 807 805 803 802
777 783 788 793 797 801 805 808 812 815 819 822 824 825 827 828 830 833 834 836 837 837 836 835 834 835 835 833 830 828 826 824 821 819 819 818 816 815 813 811 811 808 806
Wind_Speed
10 6 5 6 7 10 12 14 15 17 19 20 22 22 23 25 25 24 24 22 25 23 24 23 23 23 24 26 26 26 24 25 23 23 20 23 24 22 25 26 31 36 38
9 7 5 5 5 8 9 11 13 15 15 17 18 19 21 23 22 21 27 26 26 27 26 26 25 22 25 28 28 26 24 22 22 19 18 5 14 24 28 31 30 31 32
11 7 5 4 4 7 8 10 11 12 13 16 16 19 19 20 20 25 23 26 30 29 27 25 25 24 23 24 24 26 26 22 22 22 13 3 5 4 21 30 31 31 32
6 7 6 4 3 4 5 7 9 10 12 14 15 17 18 19 21 22 24 26 25 25 26 24 22 22 24 24 21 22 23 22 20 23 21 24 19 5 5 12 19 25 28
10 8 7 4 3 4 4 5 7 8 11 13 15 16 17 18 20 21 23 23 24 24 24 23 24 24 26 26 26 25 22 24 24 20 19 21 19 21 6 8 11 22 21
9 8 8 5 4 4 4 5 7 8 11 13 14 16 18 20 21 22 22 23 23 24 24 26 26 25 26 25 26 25 23 23 24 24 23 19 9 12 8 3 5 9 17
10 9 9 6 5 4 5 6 8 9 11 12 13 15 17 17 18 22 21 24 24 24 25 28 28 25 25 26 25 26 24 23 24 22 22 23 21 17 16 12 8 6 13
8 7 6 4 4 2 5 7 9 9 11 12 13 14 16 16 17 20 22 23 24 26 28 29 27 25 23 22 21 21 22 23 23 24 22 18 20 23 21 17 11 10 8
10 8 10 5 3 3 6 7 8 9 10 11 12 13 14 15 17 19 21 23 24 27 26 27 25 23 22 21 18 17 19 19 23 19 20 19 19 20 23 22 21 13 10
11 9 9 8 4 4 6 7 7 8 9 11 11 12 13 15 16 20 22 23 25 27 28 26 27 26 25 23 22 23 26 29 24 15 11 8 7 12 22 24 24 23 19
13 10 10 11 6 4 5 5 7 7 9 10 10 12 14 16 17 19 21 24 25 28 28 29 28 30 28 28 29 27 28 29 29 26 24 19 12 10 11 13 9 9 11
13 12 11 10 7 3 4 4 5 6 7 8 9 11 13 14 17 19 18 22 23 24 28 30 32 32 32 30 30 27 30 30 30 29 30 28 20 16 13 12 12 13 12
14 13 12 9 8 6 4 4 4 5 7 8 9 11 13 14 17 18 18 21 23 25 26 26 27 32 34 32 31 31 30 31 31 30 25 31 30 27 25 21 18 15 12
13 12 10 12 10 8 7 6 5 5 7 9 10 11 12 13 15 17 18 20 23 25 25 27 27 27 32 33 31 32 32 30 31 33 33 32 34 35 30 29 26 23 21
13 10 9 11 12 11 9 8 6 6 7 10 11 11 11 11 13 15 17 18 22 25 24 27 28 27 29 31 31 30 31 32 31 33 34 35 30 34 37 36 35 29 26
12 11 10 13 12 12 10 9 9 8 9 11 11 11 12 12 14 15 15 19 21 24 28 28 30 32 27 26 29 29 31 33 34 32 32 33 34 29 32 36 39 41 31
11 11 10 12 13 12 12 12 10 10 9 11 11 11 11 14 15 15 15 17 20 23 25 27 28 31 29 25 24 26 29 31 33 35 33 34 35 32 27 28 30 35 35
10 10 13 14 14 13 12 13 12 10 10 9 8 11 12 14 14 15 15 15 17 20 26 24 26 28 31 25 23 23 26 31 33 34 36 33 35 33 29 26 31 32 34
11 16 16 16 14 15 13 12 12 12 11 9 9 9 11 12 13 13 14 14 14 16 19 24 27 29 32 30 26 22 25 26 30 32 35 37 36 34 30 31 29 29 31
19 19 20 17 16 15 13 14 13 13 11 10 9 9 9 9 10 10 12 14 12 13 15 17 24 26 28 29 29 27 24 25 25 27 30 33 35 34 34 34 29 29 29
22 22 17 22 18 16 15 17 15 13 11 10 9 10 10 10 9 9 8 9 9 11 13 16 19 21 25 25 27 26 25 23 23 24 25 30 29 32 32 32 33 28 24
16 19 20 20 18 15 16 16 15 13 12 12 12 11 10 10 9 9 10 11 9 11 12 14 15 19 21 23 24 24 23 21 21 23 25 24 25 27 30 32 28 27 27
16 16 19 19 17 17 17 18 17 15 14 13 12 11 10 11 10 10 10 10 11 12 13 13 14 16 19 20 20 20 20 19 18 17 19 19 22 23 26 27 31 32 31
18 17 18 17 17 17 16 17 20 17 16 14 12 11 10 9 10 11 9 12 14 13 15 13 14 15 17 20 20 20 21 20 19 15 18 20 19 22 23 24 26 29 28
19 19 18 18 18 18 17 18 19 19 16 13 13 12 11 10 9 14 13 13 15 13 11 14 12 14 15 18 15 16 19 20 20 17 18 20 22 22 23 23 24 25 25
20 20 19 19 19 19 18 17 18 18 16 14 13 12 12 14 12 12 13 12 11 12 13 13 12 11 12 14 15 14 13 18 16 18 19 20 21 22 22 22 22 23 24
Wind_Direction
125 113 70 58 38 35 26 18 13 8 7 5 356 351 344 337 334 331 331 341 340 339 339 331 326 323 316 310 308 304 304 300 295 296 283 270 256 248 256 259 248 244 244
160 140 117 89 56 41 26 16 14 9 12 4 353 347 340 330 329 332 336 339 339 341 339 331 327 318 314 311 310 316 306 291 289 281 293 279 266 246 243 240 240 235 237
160 150 145 99 57 40 23 13 12 9 9 2 355 349 343 341 341 338 336 336 335 332 329 328 322 320 309 300 296 301 302 308 303 279 267 280 231 260 251 232 233 231 232
126 137 157 123 80 55 28 14 9 13 8 6 3 358 354 346 341 337 335 333 332 331 325 324 325 322 317 307 302 287 289 300 298 309 279 272 283 282 302 296 240 241 236
160 148 145 130 114 77 37 16 6 18 17 10 10 6 359 350 342 339 337 336 334 330 329 328 327 320 312 302 294 286 281 277 284 288 295 317 301 277 271 273 281 280 271
149 152 148 155 129 76 33 8 10 24 19 12 10 11 5 353 350 347 343 338 333 332 331 330 325 318 313 306 299 295 282 273 268 274 278 282 286 321 331 301 284 302 293
162 166 172 167 107 53 34 8 17 22 17 12 12 13 8 357 355 350 343 340 338 338 336 333 330 324 319 316 304 294 288 278 270 271 269 269 276 295 305 303 298 287 303
160 156 141 124 94 69 44 23 19 20 15 14 15 15 9 1 0 352 348 348 346 342 342 341 340 336 334 329 319 304 294 282 267 258 265 263 264 273 284 289 303 298 285
158 164 131 134 107 63 64 42 25 23 20 17 18 18 7 5 2 359 358 358 355 350 348 355 353 353 352 353 352 349 339 290 263 264 258 257 256 258 268 269 263 254 271
158 136 137 127 116 82 78 52 36 28 23 24 24 19 9 6 3 8 2 6 6 3 1 2 9 11 11 13 17 19 20 46 49 39 38 17 329 280 263 267 255 251 247
141 134 114 131 110 87 60 54 46 38 33 30 24 28 16 11 11 14 9 7 10 12 12 14 15 16 19 24 29 32 33 38 39 37 33 20 2 334 322 312 332 287 283
136 120 122 118 126 129 93 72 62 49 41 34 32 32 23 17 19 18 12 13 9 14 15 18 21 22 22 26 29 31 35 36 36 35 34 27 22 21 7 357 350 347 325
137 130 141 153 164 164 146 123 81 62 56 48 43 38 34 25 25 22 21 23 20 20 20 19 21 23 24 28 31 34 36 37 34 29 28 35 31 30 25 24 19 11 15
150 152 157 162 170 168 164 146 111 86 66 65 56 48 43 32 31 29 27 30 28 26 25 24 24 27 29 29 30 34 35 35 34 34 30 32 38 35 33 33 31 31 40
157 161 158 158 162 167 166 155 126 100 85 75 68 56 51 43 43 39 34 34 34 34 32 29 28 29 34 33 33 35 35 34 32 31 32 31 38 43 44 43 38 42 48
162 161 166 166 174 171 165 151 139 111 89 83 75 68 62 56 53 46 41 44 42 39 39 34 30 30 30 35 38 40 40 39 36 32 30 30 32 35 43 47 50 49 47
155 165 166 169 165 163 164 153 142 133 105 85 76 75 73 67 65 58 51 48 48 46 44 38 35 33 33 32 38 41 45 43 40 37 34 33 32 34 39 44 49 51 51
149 159 159 167 156 160 166 145 140 130 117 107 93 80 79 75 73 68 61 52 51 49 48 47 40 38 35 35 38 42 42 45 42 39 37 36 35 35 38 41 45 45 45
135 144 155 148 164 160 154 148 142 133 117 107 103 93 81 76 71 69 64 59 53 53 49 43 48 41 38 35 36 41 41 42 40 37 39 38 38 35 37 41 40 42 41
125 135 144 154 145 144 149 147 132 124 112 107 104 99 94 88 78 71 66 63 56 58 58 57 44 46 41 36 37 40 41 40 38 36 35 36 36 36 38 40 37 36 32
123 135 142 137 137 141 146 131 132 128 131 124 118 110 96 88 81 74 68 75 69 67 67 64 54 47 39 37 36 37 40 42 38 35 32 33 34 37 39 40 39 36 34
128 138 132 142 156 159 157 146 145 145 142 135 121 111 104 96 88 79 70 60 70 65 67 65 59 46 37 33 31 32 36 36 38 36 34 33 32 34 35 37 37 36 37
156 147 146 147 161 165 169 154 152 149 139 134 127 118 109 96 86 71 63 61 56 60 55 54 60 54 38 30 29 29 30 30 32 35 33 34 34 35 37 34 33 32 29
171 166 157 156 160 169 171 170 159 156 148 139 134 128 119 101 94 78 70 66 52 51 55 55 41 51 35 27 24 23 26 24 25 30 34 34 33 37 35 32 35 35 30
177 177 178 175 172 169 167 175 170 163 154 154 149 143 130 118 108 92 90 78 65 64 70 62 59 48 34 24 21 22 22 17 25 41 35 31 29 27 30 29 29 30 27
177 181 184 180 177 175 172 171 172 166 164 164 164 163 155 154 134 124 104 91 91 80 76 72 70 59 39 26 24 22 27 24 31 40 35 30 25 23 26 24 19 20 20